Accueil
METAR-TAF:

METAR-TAF

Aéroports :

Brown Field Municipal Airport

San Diego, Californie, États-Unis

latitude: 32-34-31N, longitude: 116-59-35W, altitude: 164 m

Observation

Le bulletin a été fait il y a 1 heure et 5 minutes, à 13:53 UTC
Vent 3 kt de sud/sud-est
Température 11°C
Humidité 82%
Pression 1016 hPa
Visibilité: 16.1 km
Ciel couvert à une hauteur de 4400 ft
pluie faible

METAR: KSDM 081353Z AUTO 16003KT 10SM -RA OVC044 11/08 A2999 RMK AO2 RAB16E26B42 SLP153 P0000 T01060083

Heure: 07:58 (14:58 UTC)


TAF: absent

Observations et prévisions météorologiques de plus de 4000 aéroports (messages METAR et TAF).

Les stations disponibles sont représentées par des disques jaunes et rouges sur la carte.

Passer la souris dessus pour voir le nom de la station.

Cliquer dessus pour voir les observations et prévisions météorologiques.

Pour changer de carte: cliquez sur les boutons verts avec une croix noire pour zoomer, sur le bouton vert avec un tiret pour effectuer un zoom arrière, ou sur les flèches vertes pour les cartes adjacentes.


METAR-TAF: